Weather History for Merida, Mexico

Change the Weather History Date:

Wednesday, February 20, 2013

  Actual Average Record
Temperature  
Mean Temperature 82 °F -  
Max Temperature 95 °F 88 °F 98 °F (2005)
Min Temperature 70 °F 65 °F 55 °F (2007)
Cooling Degree Days 18    
Growing Degree Days 32 (Base 50)    
Moisture  
Dew Point 66 °F    
Average Humidity 64    
Maximum Humidity 88    
Minimum Humidity 31    
Precipitation  
Precipitation 0.00 in - - ()
Sea Level Pressure  
Sea Level Pressure 29.95 in    
Wind  
Wind Speed 8 mph ()    
Max Wind Speed 17 mph    
Max Gust Speed -    
Visibility 6.4 miles    
Events      
Averages and records for this station are not official NWS values.
T = Trace of Precipitation, MM = Missing Value Source: Averaged Metar Reports

Daily Weather History Graph

Daily Weather History Graph

Search for Another Location

Airport:

Trip Planner

Search our weather history database for the weather conditions in past years. The results will help you decide how hot, cold, wet, or windy it might be!

Date:

Astronomy

Feb. 20, 2013 Rise Set
Actual Time 6:25 AM CST 5:59 PM CST
Civil Twilight 6:02 AM CST 6:22 PM CST
Nautical Twilight 5:36 AM CST 6:47 PM CST
Astronomical Twilight 5:11 AM CST 7:13 PM CST
Moon 1:42 PM CST (2/20) 2:23 AM CST (2/20)
Length of Visible Light 12h 19m
Length of Day
11h 34m
Waxing Gibbous, 76% of the Moon is Illuminated
Feb 20
Waxing Gibbous
Feb 25
Full
Mar 4
Last Quarter
Mar 11
New
Mar 19
First Quarter

Hourly Weather History & Observations

Time (CST) Temp. Heat Index Dew Point Humidity Pressure Visibility Wind Dir Wind Speed Gust Speed Precip Events Conditions
12:48 AM 71.6 °F - 62.6 °F 73% 29.99 in 7.0 mi East 9.2 mph - N/A   Clear
1:46 AM 71.6 °F - 62.6 °F 73% 29.99 in 7.0 mi ENE 4.6 mph - N/A   Clear
2:49 AM 71.6 °F - 62.6 °F 73% 30.03 in 7.0 mi ENE 9.2 mph - N/A   Clear
2:50 AM 72 °F - 66 °F 77% 30.00 in 3 mi ENE 6.7 mph - -   Partly Cloudy
3:46 AM 71.6 °F - 66.2 °F 83% 29.99 in 7.0 mi ENE 3.5 mph - N/A   Clear
4:54 AM 69.8 °F - 66.2 °F 88% 29.99 in 7.0 mi ENE 5.8 mph - N/A   Scattered Clouds
5:50 AM 69.8 °F - 66.2 °F 88% 30.01 in 7.0 mi ENE 5.8 mph - N/A   Mostly Cloudy
6:00 AM 71 °F - 68 °F 87% 29.97 in 3 mi ENE 6.7 mph - -  
6:47 AM 69.8 °F - 66.2 °F 88% 30.01 in 7.0 mi ENE 4.6 mph - N/A   Mostly Cloudy
7:47 AM 73.4 °F - 66.2 °F 78% 30.02 in 7.0 mi ENE 13.8 mph - N/A   Mostly Cloudy
8:49 AM 77.0 °F - 68.0 °F 74% 30.04 in 7.0 mi East 17.3 mph - N/A   Mostly Cloudy
8:50 AM 77 °F - 70 °F 73% 30.04 in 6 mi ESE 6.7 mph - -   Mostly Cloudy
9:46 AM 80.6 °F 83.2 °F 68.0 °F 65% 30.02 in 7.0 mi East 10.4 mph - N/A   Mostly Cloudy
10:50 AM 84.2 °F 86.6 °F 66.2 °F 55% 30.01 in 7.0 mi ESE 15.0 mph - N/A   Mostly Cloudy
11:49 AM 86.0 °F 87.3 °F 64.4 °F 48% 30.00 in 7.0 mi East 8.1 mph - N/A   Mostly Cloudy
11:50 AM 86 °F - 69 °F 48% 29.99 in 6 mi East 8.9 mph - -   Mostly Cloudy
12:47 PM 87.8 °F 88.5 °F 62.6 °F 43% 29.94 in 7.0 mi East 15.0 mph - N/A   Mostly Cloudy
1:48 PM 91.4 °F 91.4 °F 60.8 °F 36% 29.89 in 7.0 mi ESE 11.5 mph - N/A   Mostly Cloudy
2:48 PM 89.6 °F 89.5 °F 60.8 °F 38% 29.88 in 7.0 mi SE 17.3 mph - N/A   Mostly Cloudy
2:50 PM 94 °F - 67 °F 31% 29.87 in 6 mi SSE 6.7 mph - -   Partly Cloudy
3:47 PM 91.4 °F 91.4 °F 60.8 °F 36% 29.84 in 7.0 mi ESE 15.0 mph - N/A   Scattered Clouds
4:47 PM 91.4 °F 90.7 °F 59.0 °F 34% 29.85 in 7.0 mi ESE 13.8 mph - N/A   Scattered Clouds
5:49 PM 82.4 °F 84.6 °F 66.2 °F 58% 29.90 in 7.0 mi NNE 6.9 mph - N/A   Scattered Clouds
5:50 PM 83 °F - 69 °F 53% 29.90 in 6 mi NNE 13.4 mph - -   Scattered Clouds
6:48 PM 80.6 °F 83.2 °F 68.0 °F 65% 29.88 in 7.0 mi ENE 17.3 mph - N/A   Clear
7:50 PM 78.8 °F - 68.0 °F 69% 29.90 in 7.0 mi ENE 11.5 mph - N/A   Clear
8:50 PM 79 °F - 71 °F 70% 29.93 in 3 mi ENE 8.9 mph - -   Scattered Clouds
8:50 PM 78.8 °F - 68.0 °F 69% 29.94 in 7.0 mi East 9.2 mph - N/A   Partly Cloudy
9:48 PM 78.8 °F - 66.2 °F 65% 29.93 in 7.0 mi SE 9.2 mph - N/A   Clear
10:46 PM 77.0 °F - 66.2 °F 69% 29.93 in 7.0 mi SE 11.5 mph - N/A   Clear
11:44 PM 75.2 °F - 68.0 °F 78% 29.93 in 7.0 mi SE 13.8 mph - N/A   Clear
11:50 PM 76 °F - 70 °F 76% 29.93 in 3 mi SE 6.7 mph - -